Simultaneous Nadir Overpasses (SNOs) Predictions

Prediction of SNOs between NOAA-20 and NOAA-19 Satellite Orbit:

Table of predicted SNOs for the next 14.0 days since TLE Epoch: 7/2/2022
Index Date (NOAA-20) Time (NOAA-20) Lat,Lon (NOAA-20) SZA (NOAA-20 ) Date (NOAA-19) Time (NOAA-19) Lat,Lon (NOAA-19) SZA (NOAA-19 ) Distance(km) Time Diff (sec)
1 07/03/2022 20:57:36 76.58,-152.83 54.48 07/03/2022 20:56:25 76.62,-154.29 54.67 37.88 71
2 07/03/2022 21:48:25 -76.79, 13.69 125.26 07/03/2022 21:47:18 -76.79, 13.69 125.24 0.33 67
3 07/03/2022 22:39:11 76.81,-179.09 54.77 07/03/2022 22:38:21 76.78,-179.10 54.77 3.01 50
4 07/03/2022 23:29:55 -76.79, -11.71 125.25 07/03/2022 23:29:18 -76.79, -11.83 125.23 3.14 37
5 07/04/2022 00:20:41 76.82, 155.51 54.79 07/04/2022 00:20:20 76.82, 155.56 54.79 1.42 21
6 07/04/2022 01:11:25 -76.80, -37.11 125.23 07/04/2022 01:11:17 -76.82, -37.17 125.21 2.81 8
7 07/04/2022 02:02:11 76.82, 130.11 54.80 07/04/2022 02:02:20 76.81, 130.04 54.80 2.04 9
8 07/04/2022 02:52:56 -76.85, -62.68 125.16 07/04/2022 02:53:17 -76.82, -62.69 125.20 3.78 21
9 07/04/2022 03:43:40 76.83, 104.71 54.82 07/04/2022 03:44:18 76.85, 104.70 54.82 2.28 38
10 07/04/2022 04:34:25 -76.86, -88.08 125.15 07/04/2022 04:35:15 -76.85, -88.03 125.18 1.52 50
11 07/04/2022 05:25:10 76.84, 79.31 54.83 07/04/2022 05:26:18 76.84, 79.18 54.83 3.46 68
12 07/04/2022 06:16:00 -77.08,-114.37 124.86 07/04/2022 06:17:10 -77.06,-112.62 125.06 43.71 70



Historial Predications of SNOs between NOAA-20 and NOAA-19
